Aswan, Egypt

3:19 AM EET on January 18, 2018 (GMT +0200)
Aswan

Weather History for HESN - November, 2011

Change the Weather History Date:

Friday, November 18, 2011

  Actual Average Record
Temperature  
Mean Temperature 66 °F -  
Max Temperature 79 °F 77 °F 95 °F (2010)
Min Temperature 52 °F 55 °F 55 °F (2011)
Growing Degree Days 16 (Base 50)    
Moisture  
Dew Point 38 °F    
Average Humidity 35    
Maximum Humidity 55    
Minimum Humidity 15    
Precipitation  
Precipitation 0.00 in 0.00 in - ()
Sea Level Pressure  
Sea Level Pressure 30.02 in    
Wind  
Wind Speed 7 mph ()    
Max Wind Speed 13 mph    
Max Gust Speed -    
Visibility 6.0 miles    
Events      
Averages and records for this station are not official NWS values.
T = Trace of Precipitation, MM = Missing Value Source: Averaged Metar Reports

Daily Weather History Graph

Daily Weather History Graph

Search for Another Location

Airport or City:

Trip Planner

Search our weather history database for the weather conditions in past years. The results will help you decide how hot, cold, wet, or windy it might be!

Date:

Astronomy

Nov. 18, 2011 Rise Set
Actual Time 6:05 AM EET 5:02 PM EET
Civil Twilight 5:41 AM EET 5:26 PM EET
Nautical Twilight 5:13 AM EET 5:53 PM EET
Astronomical Twilight 4:46 AM EET 6:20 PM EET
Moon 11:47 PM EET 11:51 AM EET
Length of Visible Light 11h 44m
Length of Day
10h 56m
Waning Gibbous, 52% of the Moon is Illuminated
Nov 18
Waning Gibbous
Nov 18
Last Quarter
Nov 25
New
Dec 2
First Quarter
Dec 10
Full

Hourly Weather History & Observations

Time (EET) Temp. Dew Point Humidity Pressure Visibility Wind Dir Wind Speed Gust Speed Precip Events Conditions
12:00 AM 60.8 °F 37.4 °F 42% 30.04 in - North 6.9 mph - N/A   Clear
1:00 AM 59.0 °F 37.4 °F 45% 30.04 in - North 4.6 mph - N/A   Clear
2:00 AM 58 °F 35 °F 30% 30.02 in 6 mi North 8.1 mph - -  
2:00 AM 57.2 °F 35.6 °F 44% 30.01 in - North 8.1 mph - N/A   Clear
3:00 AM 57.2 °F 35.6 °F 44% 30.01 in - North 8.1 mph - N/A   Clear
4:00 AM 55.4 °F 33.8 °F 44% 30.01 in - North 5.8 mph - N/A   Clear
8:00 AM 58 °F 40 °F 40% 30.06 in 6 mi North 5.8 mph - -   Clear
8:00 AM 57.2 °F 41.0 °F 55% 30.06 in - North 5.8 mph - N/A   Clear
9:00 AM 62.6 °F 39.2 °F 42% 30.06 in - North 10.4 mph - N/A   Clear
10:00 AM 68.0 °F 41.0 °F 37% 30.06 in - North 12.7 mph - N/A   Clear
12:00 PM 73.4 °F 39.2 °F 29% 30.01 in - North 9.2 mph - N/A   Clear
1:00 PM 77.0 °F 39.2 °F 26% 29.98 in - North 8.1 mph - N/A   Clear
2:00 PM 78 °F 39 °F 15% 29.95 in 6 mi North 10.4 mph - -  
2:00 PM 78.8 °F 39.2 °F 24% 29.98 in - North 10.4 mph - N/A   Clear
3:00 PM 78.8 °F 39.2 °F 24% 29.95 in - North 9.2 mph - N/A   Clear
4:00 PM 78.8 °F 35.6 °F 21% 29.98 in - NNW 10.4 mph - N/A   Clear
8:00 PM 68 °F 37 °F 21% 30.01 in 6 mi North 6.9 mph - -  
8:00 PM 68.0 °F 37.4 °F 33% 30.04 in - North 6.9 mph - N/A   Clear
10:00 PM 64.4 °F 39.2 °F 40% 30.04 in - NNW 9.2 mph - N/A   Clear
11:00 PM 60.8 °F 37.4 °F 42% 30.04 in - North 4.6 mph - N/A   Clear